Date,TemperatureHighF,TemperatureAvgF,TemperatureLowF,DewpointHighF,DewpointAvgF,DewpointLowF,HumidityHigh,HumidityAvg,HumidityLow,PressureMaxIn,PressureMinIn,WindSpeedMaxMPH,WindSpeedAvgMPH,GustSpeedMaxMPH,PrecipitationSumIn
2013-1-1,41.0,39.0,36.0,36.0,30.0,26.0,91,71,53,0.00,40.00,37,18,0,0.25
2013-1-2,38.0,36.7,36.0,33.0,32.0,29.0,89,83,69,0.00,40.00,19,11,0,0.30
2013-1-3,38.0,33.9,32.0,34.0,32.4,31.0,98,94,84,0.00,40.00,17,6,0,0.75
2013-1-4,36.0,34.5,33.0,33.0,31.4,29.0,97,89,74,0.00,40.00,11,6,0,0.30
2013-1-5,39.0,36.8,35.0,34.0,32.3,29.0,94,84,76,0.00,40.00,12,5,0,1.09
2013-1-6,37.0,35.3,33.0,34.0,32.4,30.0,97,89,78,0.00,40.00,20,9,0,0.21
2013-1-7,37.0,35.4,33.0,35.0,32.7,30.0,98,90,81,0.00,40.00,27,13,0,0.16
2013-1-8,34.0,32.5,30.0,31.0,25.9,22.0,88,77,68,0.00,40.00,23,10,0,0.00
2013-1-9,31.0,28.7,27.0,25.0,12.5,-99.9,88,84,75,0.00,40.00,11,8,0,0.00
2013-1-10,38.0,32.1,31.0,30.0,28.7,27.0,95,87,69,0.00,40.00,21,13,0,0.00
2013-1-11,40.0,35.7,32.0,34.0,32.6,28.0,99,89,66,0.00,40.00,18,8,0,0.09
2013-1-12,45.0,40.4,32.0,36.0,33.9,31.0,99,79,65,0.00,40.00,28,13,0,0.25
2013-1-13,47.0,43.2,40.0,38.0,36.5,35.0,93,78,63,0.00,40.00,30,12,0,0.39
2013-1-14,47.0,41.3,32.0,38.0,32.5,23.0,87,70,64,0.00,40.00,27,15,0,0.04
2013-1-15,33.0,31.9,30.0,26.0,22.9,19.0,75,69,59,0.00,40.00,15,8,0,0.00
2013-1-16,35.0,31.2,26.0,32.0,26.0,20.0,97,82,68,0.00,40.00,14,10,0,0.23
2013-1-17,27.0,22.5,19.0,21.0,16.7,14.0,84,78,70,0.00,40.00,28,14,0,0.00
2013-1-18,23.0,22.6,22.0,19.0,16.5,14.0,85,77,69,0.00,40.00,23,17,0,0.00
2013-1-19,42.0,33.2,23.0,34.0,27.0,19.0,87,78,56,0.00,40.00,25,18,0,0.16
2013-1-20,43.0,38.2,32.0,33.0,31.6,30.0,94,78,60,0.00,40.00,18,7,0,0.00
2013-1-21,45.0,36.4,33.0,35.0,31.5,29.0,95,83,64,0.00,40.00,22,12,0,0.00
2013-1-22,45.0,41.6,38.0,35.0,33.4,32.0,83,72,64,0.00,40.00,15,8,0,0.00
2013-1-23,39.0,37.9,37.0,35.0,34.2,33.0,92,86,78,0.00,40.00,11,4,0,0.00
2013-1-24,39.0,37.1,34.0,35.0,33.2,30.0,92,86,80,0.00,40.00,9,4,0,0.00
2013-1-25,38.0,28.7,19.0,32.0,19.3,1.0,91,69,43,0.00,40.00,27,17,0,0.00
2013-1-26,19.0,14.4,12.0,4.0,-13.1,-99.9,58,47,40,0.00,40.00,24,14,0,0.00
2013-1-27,13.0,9.4,5.0,3.0,-44.1,-99.9,63,59,54,0.00,40.00,30,21,0,0.00
2013-1-28,21.0,10.3,6.0,19.0,-16.9,-99.9,95,77,62,0.00,40.00,32,24,0,0.00
2013-1-29,27.0,23.2,21.0,24.0,20.7,19.0,96,90,85,0.00,40.00,26,19,0,0.00
2013-1-30,43.0,36.1,27.0,35.0,31.0,24.0,96,82,65,0.00,40.00,27,13,0,0.09
2013-1-31,36.0,34.2,32.0,35.0,33.8,32.0,100,98,96,0.00,40.00,7,4,0,0.03
2013-2-1,40.0,36.2,30.0,34.0,32.1,30.0,100,85,76,0.00,40.00,25,14,0,0.03
2013-2-2,43.0,39.2,36.0,35.0,32.9,32.0,88,78,65,0.00,40.00,16,7,0,0.00
2013-2-3,43.0,40.3,36.0,34.0,31.7,30.0,87,71,61,0.00,40.00,13,6,0,0.00
2013-2-4,41.0,38.4,36.0,34.0,31.7,30.0,89,77,66,0.00,40.00,24,12,0,0.08
2013-2-5,40.0,37.0,33.0,32.0,30.8,29.0,88,78,66,0.00,40.00,17,6,0,0.00
2013-2-6,33.0,29.8,27.0,31.0,24.2,20.0,94,79,72,0.00,40.00,20,10,0,0.02
2013-2-7,37.0,32.6,28.0,33.0,28.2,22.0,96,84,66,0.00,40.00,15,7,0,0.06
2013-2-8,38.0,35.3,32.0,33.0,32.2,30.0,98,90,72,0.00,40.00,12,6,0,0.10
2013-2-9,43.0,39.3,35.0,35.0,32.9,30.0,90,78,67,0.00,40.00,28,13,0,0.33
2013-2-10,41.0,36.8,31.0,34.0,30.5,21.0,94,79,66,0.00,40.00,31,10,0,0.13
2013-2-11,33.0,28.1,25.0,21.0,16.0,11.0,68,60,45,0.00,40.00,24,14,0,0.00
2013-2-12,36.0,33.5,31.0,30.0,27.9,19.0,88,80,58,0.00,40.00,19,13,0,0.00
2013-2-13,39.0,33.8,30.0,32.0,30.3,28.0,94,87,66,0.00,40.00,20,10,0,0.05
2013-2-14,41.0,36.2,32.0,33.0,31.0,28.0,94,82,63,0.00,40.00,18,10,0,0.14
2013-2-15,33.0,28.1,24.0,28.0,20.2,13.0,84,72,52,0.00,40.00,27,19,0,0.00
2013-2-16,34.0,27.0,22.0,30.0,16.9,12.0,86,66,54,0.00,40.00,27,12,0,0.00
2013-2-17,34.0,29.0,25.0,30.0,25.0,22.0,97,86,73,0.00,40.00,19,10,0,0.01
2013-2-18,28.0,24.5,20.0,23.0,8.1,-99.9,80,59,44,0.00,40.00,26,15,0,0.00
2013-2-19,30.0,23.6,20.0,28.0,18.0,9.0,96,80,63,0.00,40.00,30,22,0,0.00
2013-2-20,32.0,29.2,27.0,28.0,25.7,23.0,95,87,83,0.00,40.00,31,17,0,0.00
2013-2-21,31.0,29.0,25.0,27.0,24.4,20.0,88,83,77,0.00,40.00,22,8,0,0.00
2013-2-22,29.0,27.6,25.0,20.0,17.3,15.0,81,65,58,0.00,40.00,33,20,0,0.00
2013-2-23,36.0,32.2,29.0,31.0,26.2,19.0,92,79,61,0.00,40.00,24,10,0,0.07
2013-2-24,36.0,34.1,32.0,33.0,30.5,28.0,94,87,79,0.00,40.00,14,6,0,0.20
2013-2-25,39.0,36.3,34.0,32.0,30.2,28.0,91,79,64,0.00,40.00,26,11,0,0.00
2013-2-26,39.0,37.1,36.0,33.0,30.1,28.0,87,76,69,0.00,40.00,28,18,0,0.01
2013-2-27,37.0,35.4,34.0,33.0,30.7,26.0,93,83,73,0.00,40.00,22,12,0,0.05
2013-2-28,37.0,34.4,33.0,33.0,30.9,28.0,96,87,75,0.00,40.00,7,3,0,0.02
2013-3-1,34.0,32.5,31.0,32.0,28.1,25.0,93,84,75,0.00,40.00,16,6,0,0.02
2013-3-2,36.0,33.1,30.0,31.0,18.0,-99.9,94,80,67,0.00,40.00,17,10,0,0.00
2013-3-3,41.0,39.1,36.0,34.0,30.2,28.0,85,70,60,0.00,40.00,25,12,0,0.00
2013-3-4,42.0,40.5,38.0,33.0,32.0,30.0,79,71,64,0.00,40.00,20,11,0,0.00
2013-3-5,40.0,36.9,34.0,33.0,31.9,29.0,89,82,68,0.00,40.00,13,6,0,0.00
2013-3-6,44.0,39.2,36.0,33.0,31.3,30.0,82,73,60,0.00,40.00,13,5,0,0.00
2013-3-7,42.0,38.7,35.0,34.0,31.9,29.0,91,77,66,0.00,40.00,31,20,0,0.22
2013-3-8,41.0,38.1,36.0,33.0,30.6,28.0,89,75,61,0.00,40.00,31,18,0,0.03
2013-3-9,40.0,36.0,33.0,33.0,31.5,27.0,94,84,72,0.00,40.00,19,8,0,0.15
2013-3-10,34.0,32.6,30.0,32.0,27.3,22.0,98,82,64,0.00,40.00,18,10,0,0.10
2013-3-11,36.0,33.6,32.0,27.0,24.0,18.0,82,68,49,0.00,40.00,21,10,0,0.01
2013-3-12,33.0,30.1,28.0,18.0,12.9,7.0,56,49,36,0.00,40.00,22,13,0,0.00
2013-3-13,30.0,27.2,24.0,14.0,7.7,-99.9,65,48,38,0.00,40.00,17,12,0,0.00
2013-3-14,29.0,24.6,21.0,23.0,17.8,-99.9,88,79,54,0.00,40.00,32,22,0,0.00
2013-3-15,37.0,30.7,27.0,23.0,21.1,17.0,80,68,49,0.00,40.00,27,15,0,0.00
2013-3-16,37.0,31.4,28.0,23.0,18.6,12.0,71,59,46,0.00,40.00,20,13,0,0.00
2013-3-17,36.0,31.2,29.0,21.0,14.2,4.0,68,50,34,0.00,40.00,10,6,0,0.00
2013-3-18,34.0,29.1,25.0,18.0,8.5,-99.9,72,54,38,0.00,40.00,15,8,0,0.00
2013-3-19,29.0,25.9,23.0,15.0,7.8,-99.9,61,49,32,0.00,40.00,21,14,0,0.00
2013-3-20,28.0,23.9,20.0,15.0,-9.8,-99.9,58,48,33,0.00,40.00,22,13,25,0.00
2013-3-21,32.0,27.7,22.0,18.0,13.4,9.0,71,55,46,0.00,40.00,12,6,17,0.00
2013-3-22,39.0,35.2,32.0,33.0,27.9,18.0,94,76,52,0.00,40.00,19,7,27,0.14
2013-3-23,34.0,32.9,32.0,29.0,24.6,23.0,84,71,64,0.00,40.00,12,7,17,0.00
2013-3-24,33.0,28.3,26.0,27.0,25.5,23.0,97,90,73,0.00,40.00,22,13,26,0.00
2013-3-25,27.0,18.4,14.0,23.0,11.3,5.0,89,73,63,0.00,40.00,33,24,43,0.00
2013-3-26,21.0,17.3,15.0,15.0,7.0,-99.9,90,73,61,0.00,40.00,25,11,33,0.00
2013-3-27,31.0,24.5,18.0,21.0,11.7,-99.9,86,66,52,0.00,40.00,19,12,24,0.00
2013-3-28,37.0,34.7,31.0,33.0,27.2,21.0,95,75,62,0.00,40.00,21,13,28,0.19
2013-3-29,40.0,37.7,35.0,33.0,31.7,30.0,93,79,67,0.00,40.00,14,8,19,0.04
2013-3-30,40.0,36.3,34.0,35.0,32.5,-99.9,96,90,76,0.00,40.00,9,5,10,0.01
2013-3-31,40.0,36.6,34.0,35.0,32.8,31.0,93,86,77,0.00,40.00,9,5,12,0.09
2013-4-1,39.0,35.9,33.0,34.0,17.6,-99.9,96,87,72,0.00,40.00,14,6,19,0.01
2013-4-2,40.0,36.2,32.0,32.0,26.7,-99.9,85,73,53,0.00,40.00,12,6,17,0.00
2013-4-3,42.0,37.9,35.0,30.0,27.6,25.0,75,67,51,0.00,40.00,11,7,13,0.00
2013-4-4,43.0,37.3,33.0,30.0,25.1,20.0,78,62,41,0.00,40.00,17,10,18,0.00
2013-4-5,38.0,34.5,31.0,25.0,21.7,19.0,70,60,49,0.00,40.00,14,8,17,0.00
2013-4-6,34.0,31.6,27.0,30.0,23.3,12.0,96,73,51,0.00,40.00,18,7,25,0.09
2013-4-7,27.0,21.9,19.0,14.0,10.6,8.0,69,61,54,0.00,40.00,24,16,33,0.00
2013-4-8,25.0,22.4,18.0,13.0,10.5,6.0,76,61,45,0.00,40.00,13,10,20,0.00
2013-4-9,22.0,19.8,16.0,13.0,9.1,5.0,72,63,55,0.00,40.00,25,17,36,0.00
2013-4-10,20.0,17.2,15.0,8.0,6.0,4.0,72,62,50,0.00,40.00,28,23,39,0.00
2013-4-11,25.0,21.5,18.0,12.0,2.7,-99.9,75,54,40,0.00,40.00,19,12,26,0.00
2013-4-12,28.0,24.2,20.0,12.0,2.6,-99.9,61,48,34,0.00,40.00,18,13,24,0.00
2013-4-13,33.0,28.4,24.0,13.0,6.5,-99.9,56,43,34,0.00,40.00,18,12,23,0.00
2013-4-14,39.0,33.0,28.0,23.0,13.8,-99.9,69,52,39,0.00,40.00,15,9,19,0.00
2013-4-15,39.0,34.3,31.0,26.0,6.3,-99.9,77,61,44,0.00,40.00,18,10,21,0.00
2013-4-16,36.0,32.5,29.0,20.0,16.2,11.0,64,51,37,0.00,40.00,19,13,23,0.00
2013-4-17,38.0,31.9,28.0,16.0,13.4,9.0,58,46,31,0.00,40.00,14,10,19,0.00
2013-4-18,41.0,35.1,30.0,23.0,14.2,-99.9,71,54,41,0.00,40.00,17,10,19,0.00
2013-4-19,41.0,36.1,32.0,30.0,10.8,-99.9,73,59,44,0.00,40.00,18,10,20,0.00
2013-4-20,45.0,38.5,33.0,27.0,22.7,-99.9,74,57,35,0.00,40.00,10,5,12,0.00
2013-4-21,39.0,37.1,35.0,33.0,30.1,26.0,91,76,58,0.00,40.00,22,11,24,0.02
2013-4-22,44.0,38.3,33.0,33.0,30.9,29.0,89,75,59,0.00,40.00,11,5,13,0.00
2013-4-23,43.0,40.0,38.0,38.0,35.8,31.0,94,85,62,0.00,40.00,8,4,11,0.47
2013-4-24,43.0,39.0,36.0,38.0,35.7,33.0,96,88,68,0.00,40.00,15,6,18,0.00
2013-4-25,42.0,39.5,36.0,35.0,19.4,11.0,86,47,30,0.00,40.00,32,21,40,0.01
2013-4-26,40.0,35.3,31.0,25.0,15.6,10.0,59,45,32,0.00,40.00,27,12,33,0.00
2013-4-27,42.0,37.7,34.0,24.0,17.9,14.0,59,45,35,0.00,40.00,20,14,30,0.00
2013-4-28,42.0,37.1,33.0,24.0,15.4,10.0,59,41,35,0.00,40.00,20,13,23,0.00
2013-4-29,40.0,37.4,34.0,29.0,23.6,-99.9,73,63,51,0.00,40.00,13,6,19,0.00
2013-4-30,43.0,39.3,36.0,34.0,30.5,25.0,84,71,51,0.00,40.00,10,6,14,0.00
2013-5-1,47.0,40.3,35.0,34.0,30.3,26.0,84,68,45,0.00,40.00,11,5,14,0.00
2013-5-2,43.0,39.6,37.0,38.0,35.3,33.0,90,85,75,0.00,40.00,9,4,12,0.13
2013-5-3,46.0,40.9,37.0,38.0,34.0,30.0,93,77,64,0.00,40.00,21,10,27,0.03
2013-5-4,40.0,36.8,32.0,35.0,31.8,29.0,97,82,66,0.00,40.00,23,10,29,0.24
2013-5-5,42.0,39.2,36.0,31.0,29.1,26.0,80,67,55,0.00,40.00,17,10,23,0.00
2013-5-6,41.0,38.3,36.0,30.0,28.5,26.0,73,67,60,0.00,40.00,15,8,20,0.00
2013-5-7,42.0,39.7,36.0,33.0,31.4,28.0,84,72,60,0.00,40.00,10,5,12,0.00
2013-5-8,44.0,41.0,38.0,37.0,33.8,30.0,84,75,69,0.00,40.00,11,6,15,0.00
2013-5-9,45.0,41.9,40.0,37.0,35.6,34.0,85,78,67,0.00,40.00,10,5,13,0.00
2013-5-10,48.0,41.4,38.0,38.0,33.9,-99.9,90,80,63,0.00,40.00,16,6,20,0.00
2013-5-11,47.0,43.2,41.0,41.0,38.2,-99.9,93,85,75,0.00,40.00,8,4,11,0.07
2013-5-12,49.0,43.3,41.0,46.0,41.1,39.0,97,92,81,0.00,40.00,9,4,13,0.08
2013-5-13,44.0,42.6,41.0,42.0,38.7,34.0,96,87,71,0.00,40.00,17,9,23,0.05
2013-5-14,43.0,41.2,40.0,35.0,29.9,21.0,82,64,45,0.00,40.00,20,12,26,0.00
2013-5-15,45.0,40.9,37.0,31.0,28.5,25.0,76,61,46,0.00,40.00,17,8,23,0.00
2013-5-16,47.0,40.8,40.0,37.0,22.0,-99.9,87,69,56,0.00,40.00,16,7,24,0.12
2013-5-17,42.0,39.3,36.0,37.0,30.4,-99.9,92,78,58,0.00,40.00,23,13,33,0.31
2013-5-18,39.0,36.3,34.0,31.0,22.3,13.0,89,59,34,0.00,40.00,25,14,31,0.00
2013-5-19,44.0,39.4,36.0,27.0,19.6,-99.9,61,49,37,0.00,40.00,16,11,22,0.00
2013-5-20,44.0,40.4,36.0,35.0,30.2,25.0,75,67,56,0.00,40.00,12,7,15,0.00
2013-5-21,51.0,44.9,41.0,36.0,34.9,33.0,79,68,52,0.00,40.00,13,5,14,0.00
2013-5-22,48.0,45.2,43.0,42.0,39.1,36.0,85,79,68,0.00,40.00,11,5,13,0.05
2013-5-23,48.0,44.8,43.0,43.0,41.0,40.0,91,87,80,0.00,40.00,12,6,16,0.00
2013-5-24,49.0,45.3,43.0,45.0,41.4,40.0,95,86,75,0.00,40.00,12,5,15,0.00
2013-5-25,51.0,46.6,43.0,42.0,40.8,39.0,93,80,66,0.00,40.00,14,7,19,0.00
2013-5-26,48.0,44.4,42.0,41.0,40.2,39.0,91,85,75,0.00,40.00,15,8,19,0.09
2013-5-27,49.0,45.3,43.0,43.0,41.6,41.0,94,87,78,0.00,40.00,15,7,18,0.00
2013-5-28,53.0,43.5,41.0,46.0,7.3,-99.9,101,94,61,0.00,40.00,12,6,15,0.00
2013-5-29,51.0,48.8,46.0,44.0,42.5,41.0,85,79,75,0.00,40.00,14,5,16,0.00
2013-5-30,50.0,47.0,44.0,44.0,43.4,42.0,98,87,78,0.00,40.00,20,6,25,0.00
2013-5-31,47.0,45.9,45.0,45.0,44.2,43.0,98,94,89,0.00,40.00,16,8,20,0.06
2013-6-1,50.0,46.4,45.0,45.0,44.2,43.0,100,92,77,0.00,40.00,11,4,15,0.08
2013-6-2,55.0,48.5,44.0,44.0,41.5,39.0,96,78,58,0.00,40.00,13,5,18,0.00
2013-6-3,52.0,49.7,48.0,41.0,39.1,36.0,76,67,58,0.00,40.00,16,8,20,0.06
2013-6-4,49.0,47.1,45.0,44.0,42.0,40.0,91,82,70,0.00,40.00,12,6,15,0.09
2013-6-5,53.0,48.0,43.0,44.0,41.6,38.0,94,79,58,0.00,40.00,11,6,16,0.00
2013-6-6,54.0,50.1,47.0,42.0,39.3,36.0,74,66,54,0.00,40.00,17,9,24,0.00
2013-6-7,57.0,51.0,45.0,43.0,40.8,38.0,85,69,52,0.00,40.00,14,8,20,0.00
2013-6-8,58.0,53.2,49.0,47.0,43.2,39.0,83,69,56,0.00,40.00,14,7,18,0.00
2013-6-9,56.0,53.1,49.0,46.0,45.1,44.0,87,74,66,0.00,40.00,17,6,21,0.00
2013-6-10,55.0,51.7,49.0,46.0,44.4,43.0,85,76,65,0.00,40.00,17,7,21,0.00
2013-6-11,56.0,51.8,49.0,48.0,45.7,43.0,89,80,62,0.00,40.00,16,7,24,0.00
2013-6-12,53.0,50.4,47.0,49.0,46.2,44.0,91,85,75,0.00,40.00,15,8,20,0.00
2013-6-13,58.0,48.5,44.0,47.0,15.7,-99.9,103,83,65,0.00,40.00,16,9,22,0.00
2013-6-14,56.0,49.6,45.0,49.0,-2.1,-99.9,103,63,68,0.00,40.00,16,8,21,0.00
2013-6-15,54.0,50.2,45.0,50.0,33.4,-99.9,104,92,74,0.00,40.00,15,6,18,0.00
2013-6-16,57.0,51.0,48.0,51.0,-36.7,-99.9,102,63,73,0.00,40.00,12,4,14,0.00
2013-6-17,59.0,55.4,52.0,51.0,49.4,47.0,88,80,69,0.00,40.00,12,6,15,0.00
2013-6-18,67.0,59.9,56.0,52.0,48.4,42.0,85,68,41,0.00,40.00,23,11,30,0.00
2013-6-19,59.0,55.6,52.0,49.0,46.5,43.0,89,72,56,0.00,40.00,16,8,25,0.16
2013-6-20,56.0,53.8,50.0,48.0,47.3,45.0,91,79,69,0.00,40.00,16,8,20,0.00
2013-6-22,54.0,51.7,49.0,46.0,43.7,42.0,81,75,65,0.00,40.00,14,8,19,0.00
2013-6-23,56.0,53.2,49.0,47.0,43.4,42.0,94,69,61,0.00,40.00,15,7,20,0.00
2013-6-24,53.0,49.6,47.0,52.0,-32.2,-99.9,104,54,91,0.00,40.00,12,6,15,0.04
2013-6-25,64.0,53.5,47.0,51.0,-13.4,-99.9,95,43,63,0.00,40.00,9,5,10,0.00
2013-6-26,62.0,55.6,52.0,52.0,49.5,47.0,93,80,67,0.00,40.00,11,6,15,0.02
2013-6-27,55.0,50.7,49.0,51.0,49.5,48.0,100,95,88,0.00,40.00,15,8,18,0.00
2013-6-28,55.0,52.6,49.0,50.0,49.1,48.0,97,88,78,0.00,40.00,12,5,16,0.00
2013-6-29,54.0,50.2,48.0,49.0,47.9,46.0,96,92,78,0.00,40.00,16,8,22,0.00
2013-6-30,56.0,51.7,47.0,49.0,47.0,45.0,95,84,68,0.00,40.00,22,7,26,0.00
2013-7-1,55.0,51.8,49.0,48.0,45.0,43.0,93,78,66,0.00,40.00,17,9,23,0.15
2013-7-2,55.0,51.5,48.0,48.0,45.3,44.0,93,80,67,0.00,40.00,13,6,15,0.00
2013-7-3,57.0,52.9,50.0,48.0,45.5,43.0,90,76,64,0.00,40.00,27,9,32,0.00
2013-7-4,55.0,52.5,51.0,46.0,45.3,43.0,83,76,69,0.00,40.00,19,8,25,0.01
2013-7-5,53.0,51.4,49.0,49.0,47.9,46.0,93,88,81,0.00,40.00,10,4,12,0.21
2013-7-6,56.0,52.3,49.0,49.0,47.5,46.0,96,84,69,0.00,40.00,18,8,25,0.01
2013-7-7,52.0,48.9,47.0,48.0,46.6,45.0,98,93,80,0.00,40.00,13,7,18,0.32
2013-7-8,56.0,50.0,46.0,48.0,46.1,45.0,97,87,74,0.00,40.00,14,5,19,0.00
2013-7-9,56.0,51.5,47.0,49.0,46.9,45.0,97,85,73,0.00,40.00,14,6,18,0.00
2013-7-10,57.0,51.9,49.0,50.0,46.4,-99.9,94,84,74,0.00,40.00,13,6,16,0.00
2013-7-11,60.0,54.6,51.0,51.0,48.8,47.0,91,81,66,0.00,40.00,13,6,18,0.00
2013-7-12,60.0,55.3,52.0,51.0,49.9,49.0,94,82,71,0.00,40.00,13,7,18,0.00
2013-7-13,60.0,55.0,51.0,51.0,49.8,48.0,95,83,71,0.00,40.00,15,6,22,0.00
2013-7-14,57.0,54.5,51.0,51.0,50.0,49.0,94,85,76,0.00,40.00,14,7,20,0.00
2013-7-15,59.0,52.7,49.0,51.0,49.6,48.0,95,89,75,0.00,40.00,15,6,22,0.00
2013-7-16,61.0,56.6,52.0,53.0,51.9,50.0,95,84,73,0.00,40.00,9,4,13,0.00
2013-7-17,62.0,57.7,55.0,55.0,53.8,53.0,94,87,78,0.00,40.00,13,6,18,0.00
2013-7-18,62.0,58.4,56.0,56.0,54.6,53.0,94,87,82,0.00,40.00,11,5,19,0.00
2013-7-19,62.0,57.9,56.0,56.0,51.6,50.0,86,79,74,0.00,40.00,20,14,27,0.00
2013-7-20,58.0,55.5,54.0,51.0,50.3,49.0,87,83,75,0.00,40.00,18,13,24,0.00
2013-7-21,67.0,55.8,52.0,50.0,49.1,48.0,88,79,53,0.00,40.00,14,6,23,0.00
2013-7-22,65.0,58.4,55.0,52.0,43.7,-99.9,87,74,50,0.00,40.00,13,5,18,0.00
2013-7-23,63.0,57.0,55.0,54.0,51.9,50.0,94,83,69,0.00,40.00,13,8,15,0.00
2013-7-24,64.0,57.5,55.0,54.0,52.9,52.0,94,85,67,0.00,40.00,12,7,16,0.00
2013-7-25,67.0,60.7,55.0,56.0,54.6,52.0,93,81,67,0.00,40.00,10,6,14,0.00
2013-7-26,59.0,56.3,54.0,56.0,53.5,51.0,96,91,84,0.00,40.00,8,5,11,0.00
2013-7-27,58.0,54.4,51.0,54.0,52.7,51.0,100,95,88,0.00,40.00,11,6,14,0.00
2013-7-28,55.0,53.5,52.0,54.0,52.2,51.0,98,95,91,0.00,40.00,13,5,17,0.00
2013-7-29,59.0,54.4,51.0,53.0,51.8,50.0,98,91,82,0.00,40.00,16,6,20,0.00
2013-7-30,59.0,55.0,52.0,53.0,51.7,51.0,96,89,78,0.00,40.00,16,6,20,0.00
2013-7-31,62.0,57.3,52.0,53.0,52.1,51.0,96,83,71,0.00,40.00,15,7,20,0.00
2013-8-1,61.0,56.9,53.0,53.0,51.8,50.0,95,83,70,0.00,40.00,12,6,16,0.01
2013-8-2,62.0,59.1,57.0,54.0,50.8,48.0,88,74,65,0.00,40.00,15,7,25,0.02
2013-8-3,61.0,58.6,56.0,52.0,50.0,48.0,80,73,67,0.00,40.00,24,15,34,0.00
2013-8-4,58.0,56.1,54.0,53.0,50.9,48.0,95,83,72,0.00,40.00,13,6,19,0.02
2013-8-5,59.0,55.9,54.0,53.0,50.6,48.0,94,82,69,0.00,40.00,19,8,28,0.00
2013-8-6,60.0,57.7,55.0,53.0,50.8,49.0,86,78,71,0.00,40.00,15,6,23,0.03
2013-8-7,62.0,57.8,54.0,53.0,50.8,48.0,93,78,68,0.00,40.00,10,5,16,0.01
2013-8-8,57.0,54.0,51.0,52.0,46.4,43.0,98,77,63,0.00,40.00,27,12,32,0.00
2013-8-9,57.0,54.3,51.0,51.0,49.1,45.0,96,83,68,0.00,40.00,19,8,29,0.06
2013-8-10,56.0,52.2,48.0,50.0,49.4,47.0,99,90,78,0.00,40.00,9,5,13,0.00
2013-8-11,52.0,50.4,49.0,51.0,50.0,48.0,99,98,94,0.00,40.00,9,3,11,0.74
2013-8-12,57.0,52.8,50.0,54.0,52.0,50.0,100,97,89,0.00,40.00,7,2,9,0.35
2013-8-13,57.0,53.3,51.0,52.0,51.2,48.0,100,92,80,0.00,40.00,10,5,14,0.00
2013-8-14,56.0,51.4,47.0,51.0,46.7,-99.9,99,89,71,0.00,40.00,12,6,16,0.00
2013-8-15,54.0,47.3,47.0,51.0,37.1,-99.9,96,87,86,0.00,40.00,12,7,15,0.00
2013-8-16,55.0,50.4,48.0,52.0,48.0,-99.9,98,93,87,0.00,40.00,8,4,11,0.08
2013-8-17,58.0,54.0,52.0,52.0,49.6,-99.9,95,87,80,0.00,40.00,7,4,9,0.01
2013-8-18,55.0,52.3,50.0,52.0,50.5,49.0,97,94,88,0.00,40.00,9,4,10,0.01
2013-8-19,55.0,51.8,51.0,52.0,45.6,-99.9,98,91,82,0.00,40.00,11,3,15,0.18
2013-8-20,56.0,51.7,49.0,51.0,48.2,-99.9,99,91,74,0.00,40.00,12,5,16,0.04
2013-8-21,55.0,51.8,50.0,51.0,49.6,46.0,100,92,70,0.00,40.00,10,4,13,0.55
2013-8-22,52.0,50.9,50.0,52.0,50.5,50.0,100,99,96,0.00,40.00,7,4,10,0.13
2013-8-23,55.0,52.8,50.0,51.0,49.3,47.0,99,88,76,0.00,40.00,17,9,20,0.00
2013-8-24,62.0,51.4,47.0,48.0,44.6,-99.9,95,81,49,0.00,40.00,10,5,14,0.00
2013-8-25,57.0,51.9,49.0,49.0,36.5,-99.9,90,82,64,0.00,40.00,11,7,16,0.00
2013-8-26,54.0,51.1,49.0,50.0,47.4,45.0,94,87,76,0.00,40.00,11,6,16,0.00
2013-8-27,52.0,50.7,50.0,50.0,49.0,48.0,95,94,91,0.00,40.00,4,2,5,0.00
2013-8-28,54.0,51.9,50.0,50.0,48.7,47.0,97,88,80,0.00,40.00,8,4,12,0.40
2013-8-29,55.0,52.5,50.0,52.0,50.3,49.0,98,92,80,0.00,40.00,20,8,24,0.51
2013-8-30,57.0,52.9,50.0,53.0,51.0,50.0,99,94,79,0.00,40.00,6,4,8,0.00
2013-8-31,56.0,51.0,49.0,52.0,47.7,-99.9,98,91,81,0.00,40.00,13,6,20,0.06
2013-9-1,57.0,52.6,49.0,51.0,48.7,47.0,95,86,73,0.00,40.00,7,4,10,0.02
2013-9-2,60.0,56.6,53.0,52.0,46.2,42.0,94,69,53,0.00,40.00,30,21,45,0.18
2013-9-3,58.0,55.8,54.0,50.0,47.3,44.0,84,73,59,0.00,40.00,22,12,30,0.02
2013-9-4,55.0,53.8,51.0,49.0,46.2,41.0,83,75,63,0.00,40.00,15,7,19,0.02
2013-9-5,56.0,53.6,50.0,47.0,43.6,41.0,87,69,58,0.00,40.00,18,10,23,0.00
2013-9-6,58.0,52.6,50.0,50.0,47.0,43.0,91,81,70,0.00,40.00,28,16,34,0.16
2013-9-7,56.0,51.7,50.0,51.0,48.7,-99.9,97,92,83,0.00,40.00,12,7,15,0.00
2013-9-8,58.0,54.2,50.0,49.0,45.6,42.0,97,74,54,0.00,40.00,18,12,25,0.00
2013-9-9,56.0,54.6,53.0,52.0,47.5,44.0,92,77,64,0.00,40.00,24,9,33,0.17
2013-9-10,57.0,53.1,51.0,52.0,50.3,49.0,97,91,78,0.00,40.00,9,5,12,0.05
2013-9-11,55.0,52.6,50.0,51.0,48.1,43.0,99,85,67,0.00,40.00,16,9,25,0.58
2013-9-12,55.0,52.0,48.0,47.0,44.4,41.0,88,75,66,0.00,40.00,22,10,29,0.00
2013-9-13,61.0,53.5,50.0,50.0,46.9,43.0,97,79,59,0.00,40.00,17,6,27,0.04
2013-9-14,52.0,48.7,46.0,49.0,46.8,-99.9,100,96,87,0.00,40.00,4,2,8,0.01
2013-9-15,54.0,50.8,48.0,48.0,45.4,-99.9,99,88,78,0.00,40.00,15,7,20,0.00
2013-9-16,52.0,48.7,45.0,45.0,43.3,41.0,95,82,67,0.00,40.00,16,9,21,0.00
2013-9-17,52.0,48.5,46.0,48.0,43.5,41.0,92,83,75,0.00,40.00,13,6,17,0.00
2013-9-18,50.0,48.7,46.0,48.0,42.3,35.0,92,79,56,0.00,40.00,12,6,17,0.00
2013-9-19,51.0,46.8,43.0,41.0,37.3,31.0,84,70,49,0.00,40.00,15,7,19,0.00
2013-9-20,49.0,44.8,41.0,35.0,29.6,24.0,75,56,38,0.00,40.00,20,8,23,0.00
2013-9-21,45.0,43.1,43.0,39.0,33.9,-99.9,86,72,56,0.00,40.00,23,12,28,0.12
2013-9-22,45.0,43.2,40.0,38.0,32.9,26.0,84,67,50,0.00,40.00,24,14,28,0.00
2013-9-23,47.0,42.4,39.0,30.0,27.4,23.0,67,55,46,0.00,40.00,24,14,30,0.00
2013-9-24,51.0,44.0,40.0,40.0,15.5,-99.9,78,70,62,0.00,40.00,25,10,34,0.01
2013-9-25,54.0,50.4,45.0,44.0,41.0,38.0,78,70,58,0.00,40.00,24,12,36,0.15
2013-9-26,52.0,48.3,47.0,47.0,45.1,42.0,94,88,74,0.00,40.00,18,6,22,0.02
2013-9-27,51.0,48.7,46.0,43.0,40.4,37.0,82,73,66,0.00,40.00,26,15,31,0.00
2013-9-28,52.0,46.2,42.0,44.0,39.8,-99.9,94,81,55,0.00,40.00,15,5,25,0.00
2013-9-29,49.0,46.6,45.0,36.0,34.3,32.0,70,62,53,0.00,40.00,14,10,25,0.00
2013-9-30,50.0,46.6,43.0,39.0,34.8,32.0,83,64,50,0.00,40.00,13,8,20,0.00
2013-10-1,48.0,45.7,42.0,39.0,37.6,35.0,86,72,63,0.00,40.00,10,7,13,0.00
2013-10-2,48.0,43.9,40.0,40.0,37.6,32.0,94,79,53,0.00,40.00,12,5,16,0.02
2013-10-3,50.0,46.7,43.0,42.0,39.9,36.0,91,77,72,0.00,40.00,27,18,33,0.00
2013-10-4,50.0,46.6,43.0,46.0,42.6,40.0,94,87,76,0.00,40.00,14,6,20,0.00
2013-10-5,47.0,43.8,40.0,42.0,39.2,35.0,94,84,62,0.00,40.00,20,7,25,0.00
2013-10-6,48.0,46.3,44.0,41.0,39.1,37.0,87,76,68,0.00,40.00,18,10,23,0.05
2013-10-7,49.0,46.5,44.0,43.0,40.4,38.0,87,79,68,0.00,40.00,9,6,16,0.04
2013-10-8,53.0,49.3,45.0,46.0,41.5,35.0,92,75,61,0.00,40.00,37,20,47,0.30
2013-10-9,47.0,45.3,44.0,40.0,35.0,32.0,79,67,58,0.00,40.00,39,25,50,0.00
2013-10-10,46.0,44.3,42.0,43.0,40.5,38.0,93,86,77,0.00,40.00,15,7,19,0.17
2013-10-11,50.0,46.3,44.0,45.0,41.7,39.0,97,85,65,0.00,40.00,22,9,32,0.16
2013-10-12,51.0,49.0,47.0,41.0,38.9,-99.9,76,70,64,0.00,40.00,30,17,39,0.02
2013-10-13,50.0,47.4,45.0,45.0,41.0,37.0,95,78,64,0.00,40.00,22,7,30,0.18
2013-10-14,49.0,46.3,44.0,42.0,39.9,38.0,87,78,67,0.00,40.00,12,6,19,0.01
2013-10-15,55.0,51.7,48.0,44.0,41.8,38.0,73,69,65,0.00,40.00,31,17,37,0.07
2013-10-16,53.0,50.3,46.0,44.0,40.6,37.0,88,70,60,0.00,40.00,29,17,36,0.11
2013-10-17,51.0,50.3,49.0,42.0,39.8,38.0,73,67,61,0.00,40.00,29,16,37,0.01
2013-10-18,51.0,48.6,45.0,44.0,39.9,36.0,89,72,63,0.00,40.00,31,16,44,0.12
2013-10-19,49.0,47.7,46.0,42.0,38.6,-99.9,83,72,63,0.00,40.00,29,12,44,0.01
2013-10-20,48.0,46.6,45.0,42.0,37.4,33.0,84,71,62,0.00,40.00,15,8,19,0.00
2013-10-21,46.0,44.0,42.0,38.0,36.7,33.0,84,75,62,0.00,40.00,20,8,24,0.04
2013-10-22,45.0,42.2,39.0,38.0,35.8,34.0,88,78,68,0.00,40.00,18,7,23,0.01
2013-10-23,41.0,38.0,36.0,35.0,32.2,28.0,92,80,66,0.00,40.00,23,13,27,0.00
2013-10-24,47.0,43.5,38.0,42.0,35.5,28.0,82,73,59,0.00,40.00,34,14,50,0.26
2013-10-25,47.0,44.3,42.0,40.0,37.1,34.0,88,76,60,0.00,40.00,15,7,21,0.04
2013-10-26,50.0,42.3,39.0,38.0,32.5,-99.9,92,78,49,0.00,40.00,18,8,23,0.00
2013-10-27,54.0,47.7,43.0,45.0,40.5,32.0,90,76,50,0.00,40.00,24,10,37,0.60
2013-10-28,55.0,48.5,45.0,47.0,42.8,-99.9,95,84,69,0.00,40.00,28,11,38,0.73
2013-10-29,47.0,43.7,40.0,41.0,38.2,35.0,94,81,66,0.00,40.00,26,6,35,0.00
2013-10-30,48.0,44.9,42.0,42.0,39.5,36.0,94,82,64,0.00,40.00,29,11,35,0.11
2013-10-31,44.0,43.2,42.0,42.0,39.3,37.0,94,87,77,0.00,40.00,18,8,23,0.13
2013-11-1,43.0,41.6,39.0,37.0,35.0,30.0,80,77,70,0.00,40.00,21,16,25,0.00
2013-11-2,45.0,40.8,37.0,35.0,32.3,-99.9,88,73,62,0.00,40.00,20,11,28,0.00
2013-11-3,49.0,47.2,45.0,40.0,37.3,35.0,76,68,64,0.00,40.00,20,12,28,0.00
2013-11-4,46.0,43.2,41.0,42.0,38.2,33.0,93,82,71,0.00,40.00,10,5,12,0.06
2013-11-5,45.0,41.8,39.0,37.0,33.2,27.0,86,72,63,0.00,40.00,17,5,21,0.00
2013-11-6,39.0,36.1,35.0,28.0,23.5,19.0,72,60,51,0.00,40.00,21,14,26,0.00
2013-11-7,41.0,38.0,35.0,34.0,31.9,27.0,82,78,70,0.00,40.00,26,18,30,0.00
2013-11-8,39.0,36.1,34.0,31.0,24.4,-99.9,84,79,69,0.00,40.00,12,6,15,0.00
2013-11-9,48.0,41.4,35.0,42.0,36.3,-99.9,93,84,71,0.00,40.00,12,6,19,0.01
2013-11-10,47.0,42.6,37.0,42.0,39.1,34.0,97,88,74,0.00,40.00,20,10,26,0.38
2013-11-11,37.0,35.0,31.0,34.0,24.8,15.0,89,67,50,0.00,40.00,27,16,38,0.00
2013-11-12,32.0,29.9,28.0,20.0,14.0,-99.9,65,58,52,0.00,40.00,26,14,34,0.00
2013-11-13,46.0,35.3,31.0,43.0,28.9,17.0,90,78,56,0.00,40.00,13,7,16,0.00
2013-11-14,47.0,44.9,41.0,43.0,37.9,25.0,87,77,47,0.00,40.00,28,16,37,0.00
2013-11-15,42.0,38.3,35.0,33.0,29.4,22.0,82,70,57,0.00,40.00,16,7,21,0.00
2013-11-16,35.0,29.5,28.0,22.0,13.5,-99.9,61,52,44,0.00,40.00,25,18,33,0.00
2013-11-17,28.0,23.5,19.0,12.0,2.9,-99.9,62,55,47,0.00,40.00,29,23,35,0.00
2013-11-18,21.0,19.8,18.0,9.0,-6.1,-99.9,61,54,46,0.00,40.00,20,17,26,0.00
2013-11-19,22.0,18.9,17.0,17.0,-3.5,-99.9,82,57,48,0.00,40.00,22,14,27,0.00
2013-11-20,22.0,19.0,15.0,20.0,-26.9,-99.9,94,87,72,0.00,40.00,35,22,41,0.00
2013-11-21,41.0,22.3,15.0,38.0,-34.8,-99.9,101,93,84,0.00,40.00,35,30,44,0.11
2013-11-22,41.0,33.9,28.0,39.0,29.3,19.0,97,84,65,0.00,40.00,27,13,33,0.02
2013-11-23,39.0,33.1,26.0,32.0,19.4,-99.9,96,69,52,0.00,40.00,20,12,25,0.02
2013-11-24,40.0,38.9,37.0,34.0,32.5,31.0,84,78,71,0.00,40.00,14,7,18,0.03
2013-11-25,39.0,36.4,34.0,34.0,31.4,27.0,93,82,71,0.00,40.00,20,11,23,0.00
2013-11-26,36.0,34.5,34.0,32.0,31.5,31.0,94,89,83,0.00,40.00,14,10,17,0.05
2013-11-27,35.0,33.3,30.0,32.0,28.8,15.0,95,85,53,0.00,40.00,18,6,24,0.01
2013-11-28,31.0,24.5,19.0,21.0,-0.4,-99.9,70,57,47,0.00,40.00,19,13,25,0.00
2013-11-29,20.0,17.5,16.0,7.0,-14.5,-99.9,66,54,47,0.00,40.00,23,16,27,0.00
2013-11-30,18.0,14.5,14.0,6.0,-52.7,-99.9,68,59,52,0.00,40.00,22,14,26,0.00
2013-12-1,28.0,26.4,22.0,18.0,-27.9,-99.9,69,61,47,0.00,40.00,23,18,27,0.00
2013-12-2,32.0,29.5,27.0,25.0,-63.2,-99.9,86,73,65,0.00,40.00,19,9,23,0.00
2013-12-3,34.0,32.3,30.0,28.0,-9.3,-99.9,89,78,63,0.00,40.00,20,11,23,0.00
2013-12-4,37.0,36.0,34.0,33.0,30.4,28.0,96,80,71,0.00,40.00,21,14,24,0.00
2013-12-5,38.0,36.2,34.0,37.0,34.6,33.0,99,94,87,0.00,40.00,19,11,23,0.04
2013-12-6,45.0,39.9,36.0,39.0,37.7,35.0,96,92,80,0.00,40.00,11,6,15,0.01
2013-12-7,39.0,37.3,36.0,39.0,35.6,-99.9,100,98,96,0.00,40.00,14,6,16,0.00
2013-12-8,37.0,34.6,32.0,36.0,33.2,31.0,100,95,83,0.00,40.00,15,8,17,0.00
2013-12-9,38.0,37.5,35.0,37.0,34.7,31.0,97,90,79,0.00,40.00,13,6,15,0.00
2013-12-10,37.0,35.4,33.0,36.0,33.3,29.0,96,92,84,0.00,40.00,30,17,37,0.00
2013-12-11,33.0,27.8,24.0,29.0,18.0,10.0,86,67,51,0.00,40.00,26,15,34,0.00
2013-12-12,24.0,20.1,18.0,12.0,-10.1,-99.9,75,63,55,0.00,40.00,20,12,24,0.00
2013-12-13,21.0,19.8,18.0,20.0,11.4,-99.9,97,90,72,0.00,40.00,26,18,31,0.02
2013-12-14,24.0,18.9,16.0,22.0,14.1,-99.9,97,86,82,0.00,40.00,32,19,42,0.02
2013-12-15,23.0,19.1,15.0,19.0,10.3,-99.9,97,84,70,0.00,40.00,31,17,41,0.01
2013-12-16,19.0,16.6,15.0,13.0,-22.9,-99.9,86,79,68,0.00,40.00,17,13,21,0.00
2013-12-17,18.0,17.1,17.0,8.0,-5.0,-99.9,85,66,59,0.00,40.00,16,12,19,0.00
2013-12-18,31.0,25.0,17.0,29.0,-27.2,-99.9,102,93,79,0.00,40.00,31,19,36,0.00
2013-12-19,31.0,26.4,24.0,26.0,-15.0,-99.9,102,97,90,0.00,40.00,31,17,36,0.00
2013-12-20,34.0,31.7,28.0,32.0,29.0,25.0,92,90,86,0.00,40.00,19,12,21,0.00
2013-12-21,37.0,34.5,33.0,36.0,31.5,-99.9,98,92,89,0.00,40.00,10,5,12,0.10
2013-12-22,35.0,32.2,29.0,34.0,27.9,17.0,98,85,58,0.00,40.00,26,13,35,0.08
2013-12-23,30.0,27.5,23.0,19.0,-0.3,-99.9,78,55,41,0.00,40.00,23,14,28,0.00
2013-12-24,23.0,19.1,17.0,15.0,-21.9,-99.9,88,81,60,0.00,40.00,29,26,35,0.00
2013-12-25,22.0,20.2,18.0,17.0,-10.0,-99.9,84,75,66,0.00,40.00,27,21,31,0.00
2013-12-26,25.0,22.7,21.0,20.0,-10.2,-99.9,90,84,79,0.00,40.00,15,11,18,0.00
2013-12-27,26.0,24.6,23.0,26.0,5.8,-99.9,98,85,75,0.00,40.00,27,20,31,0.00
2013-12-28,29.0,26.0,24.0,27.0,22.6,-99.9,99,91,90,0.00,40.00,22,13,26,0.00
2013-12-29,32.0,30.2,28.0,29.0,27.8,27.0,96,91,86,0.00,40.00,29,17,34,0.00
2013-12-30,33.0,32.0,31.0,31.0,29.3,28.0,95,90,86,0.00,40.00,14,9,16,0.00
2013-12-31,42.0,37.5,31.0,35.0,24.9,-99.9,96,83,65,0.00,40.00,31,16,39,0.09
2014-1-1,41.0,38.5,35.0,35.0,33.9,30.0,92,84,75,0.00,40.00,20,13,29,0.22
2014-1-2,36.0,34.8,34.0,31.0,29.2,28.0,86,80,75,0.00,40.00,17,11,26,0.00